Address 0x9a66644084108a1bc23a9ccd50d6d63e53098db6 14

Txn Hash Method
Block
From
To
Value [Txn Fee]
0x4e7720905eb886c223e075d142889623f537924ec93b746b2a2e917b3a3b9d21Relay229902022022-11-29 11:37:1515 mins ago0x9a66644084108a1bc23a9ccd50d6d63e53098db6OUT Celer Network: cBridge0 AVAX0.0049139 25
0x98ae80b2f53442b116d9d2fedd4d1bde865f711eae9c4c133c798b2fd8719071Relay229901692022-11-29 11:36:0916 mins ago0x9a66644084108a1bc23a9ccd50d6d63e53098db6OUT Celer Network: cBridge0 AVAX0.004914325 25
0x8a2243eb45af1efb6c07b26dc8e774a9cebd1a869270f76fdc1fb2828260ba86Relay229901682022-11-29 11:36:0616 mins ago0x9a66644084108a1bc23a9ccd50d6d63e53098db6OUT Celer Network: cBridge0 AVAX0.0044858 25
0x2aae18ca90c2681c8d6d1c4602e4b1c7c9e793a492004c1c72e03914ba0d3a21Relay229901672022-11-29 11:36:0316 mins ago0x9a66644084108a1bc23a9ccd50d6d63e53098db6OUT Celer Network: cBridge0 AVAX0.004914325 25
0x4bbcefef5a9b862e83e9d09db1ef8f020339bb20522eb04dad9ec60fc25f1402Relay229901652022-11-29 11:36:0116 mins ago0x9a66644084108a1bc23a9ccd50d6d63e53098db6OUT Celer Network: cBridge0 AVAX0.00490705 25
0x717f95ee1161a4d5bd8f13159669dae893962259c5a11aae233aec41ac6f9960Relay229901442022-11-29 11:35:1917 mins ago0x9a66644084108a1bc23a9ccd50d6d63e53098db6OUT Celer Network: cBridge0 AVAX0.0049121 25
0xbc9f9452d1dcedd35ba42ee1d2dc061fdc9ac58f4755c332589f3ff8fac6ae99Relay229901102022-11-29 11:34:0818 mins ago0x9a66644084108a1bc23a9ccd50d6d63e53098db6OUT Celer Network: cBridge0 AVAX0.004485975 25
0xc4deab03429d00e7eb5b31cf11cc3cb66d73ae7f1e29c88adb7edb1180c8fc98Relay229901052022-11-29 11:33:5818 mins ago0x9a66644084108a1bc23a9ccd50d6d63e53098db6OUT Celer Network: cBridge0 AVAX0.004485975 25
0xc48bb8a272ae3d663852db89626bbc696b33f5e1d4ecbdafa17959b139d2c5f4Relay229900842022-11-29 11:33:1619 mins ago0x9a66644084108a1bc23a9ccd50d6d63e53098db6OUT Celer Network: cBridge0 AVAX0.004484975 25
0x3cd4246b486a62fdd9b629e7b6e43e16b7fed4212a2bfe354def021e0ef7c7e1Relay229900242022-11-29 11:31:1621 mins ago0x9a66644084108a1bc23a9ccd50d6d63e53098db6OUT Celer Network: cBridge0 AVAX0.004906475 25
0xb7dbc41454a6e41351026f4e354b767ad2c0f7610ce91ca21c2245f9af5598a8Relay229899842022-11-29 11:29:5322 mins ago0x9a66644084108a1bc23a9ccd50d6d63e53098db6OUT Celer Network: cBridge0 AVAX0.004906275 25
0xd9e248961f849ed4d80d49433d702c39ad64b88e9db8a2d1b75365bef78dc6bfRelay229889492022-11-29 10:54:2358 mins ago0x9a66644084108a1bc23a9ccd50d6d63e53098db6OUT Celer Network: cBridge0 AVAX0.004912575 25
0x05e6212d51401984d8d08a72beb6f7971793d0c1b7ee16f23edd83fe07132cbbRelay229888202022-11-29 10:49:501 hr 2 mins ago0x9a66644084108a1bc23a9ccd50d6d63e53098db6OUT Celer Network: cBridge0 AVAX0.004907125 25
0x0a6a960757367753a9efbc64717b17d390591fab237e46855850f4158c2c583dRelay229887172022-11-29 10:46:201 hr 6 mins ago0x9a66644084108a1bc23a9ccd50d6d63e53098db6OUT Celer Network: cBridge0 AVAX0.0049133 25
0x368d16b40482074950509bd7635ad9e1bcaa182b381147e9c8ef029202870e09Relay229876432022-11-29 10:09:291 hr 43 mins ago0x9a66644084108a1bc23a9ccd50d6d63e53098db6OUT Celer Network: cBridge0 AVAX0.00491305 25
0x7be073fd661d0a00d2f1b8e82763b92e136a74f0fb88e1e556291fc44ee1db97Relay229875872022-11-29 10:07:291 hr 45 mins ago0x9a66644084108a1bc23a9ccd50d6d63e53098db6OUT Celer Network: cBridge0 AVAX0.004905575 25
0x9777ceb14771c9070d2ec8a38fcb70493cbd12d6bcc427466ebc07d8f1d8e07cRelay229862332022-11-29 9:21:162 hrs 31 mins ago0x9a66644084108a1bc23a9ccd50d6d63e53098db6OUT Celer Network: cBridge0 AVAX0.004913175 25
0xbea57d4a4969c7adfc3002289309875abba036c00f08898142342872af1767d8Relay229861142022-11-29 9:17:142 hrs 35 mins ago0x9a66644084108a1bc23a9ccd50d6d63e53098db6OUT Celer Network: cBridge0 AVAX0.00491205 25
0x4f2c20df7844f0cba872730be8e4732d5b8885b4dd559f8c1af7de404787e11dRelay229849592022-11-29 8:37:553 hrs 14 mins ago0x9a66644084108a1bc23a9ccd50d6d63e53098db6OUT Celer Network: cBridge0 AVAX0.004493725 25
0x9d369227f761acd1cb31bc46b5fc93b3780fc71de85c8c62761636b53681aa44Relay229849332022-11-29 8:37:033 hrs 15 mins ago0x9a66644084108a1bc23a9ccd50d6d63e53098db6OUT Celer Network: cBridge0 AVAX0.004911925 25
0x6a3ca96e1c57119ceb388db3f1360bece5edc2ef5b27db0af26a31f54127e2c8Relay229848822022-11-29 8:35:213 hrs 17 mins ago0x9a66644084108a1bc23a9ccd50d6d63e53098db6OUT Celer Network: cBridge0 AVAX0.004918775 25
0x0631557b2d75a5d87c3e175f766c26f500e588e4c6479be186988defc462cbb4Withdraw229847712022-11-29 8:31:363 hrs 21 mins ago0x9a66644084108a1bc23a9ccd50d6d63e53098db6OUT 0xb51541df05de07be38dcfc4a80c05389a54502bb0 AVAX0.005214875 25
0x70a510fe063a2ad0972cfdd347c93281e21a6aca7652035da9687ded82511e07Relay229837582022-11-29 7:57:303 hrs 55 mins ago0x9a66644084108a1bc23a9ccd50d6d63e53098db6OUT Celer Network: cBridge0 AVAX0.004907775 25
0x4b4b0c41ff1570679339c94f35d5f65be4d1228bdad19e43279b34665d76d3d8Relay229836682022-11-29 7:54:293 hrs 58 mins ago0x9a66644084108a1bc23a9ccd50d6d63e53098db6OUT Celer Network: cBridge0 AVAX0.004919525 25
0x6990a255e0642cc8f1973fef833debea6671352f4b0939140e3152a51fd3dd6eRelay229835992022-11-29 7:52:074 hrs ago0x9a66644084108a1bc23a9ccd50d6d63e53098db6OUT Celer Network: cBridge0 AVAX0.00449185 25
[ Download CSV Export 
Parent Txn Hash Block From To Value
Loading

Contract Name:
0

Compiler Version
0

Optimization Enabled:
0

Other Settings:
-NA-
Block Transaction Gas Used Reward
Age Block Fee Address BC Fee Address Voting Power Jailed Incoming
Block Uncle Number Difficulty Gas Used Reward
Loading
Make sure to use the "Vote Down" button for any spammy posts, and the "Vote Up" for interesting conversations.